Retour au catalogue

FENGYUN 1C DEB

ActifSSO
NORAD 37057·DEBRIS·🇨🇳 China

Lancé May 10, 1999 depuis Taiyuan Satellite Launch Center

Loading…

Prochains Passages (prochaines 24 heures)

TLE

FraisSource: Space-Track

Époque: Sep 11, 2026, 06:38 UTC

1 37057U 99025EER 26254.27657106  .00000113  00000-0  79140-4 0  9990
2 37057  98.9155 266.0278 0284534 108.0070 255.2318 13.96457916674019

Suivez FENGYUN 1C DEB en temps réel avec AllMySat

Download on the App Store